Погода в Гурбуки

Россия / Республика Дагестан     42°36′35″N   47°35′21″E
темп.,
°C
ветер,
м/с
пор.,
м/с
влажн.,
%
обл.,
%
осадки,
мм/ч
давл.,
гПа
погр.,
м
23 октября, сб
сб2300:00+11зюз32500 0.0 102015
03:00+10зюз32490 0.0 102014
06:00+9зюз33490 0.0 102016
09:00+14сз12390 0.0 1020252
12:00+16св31390 0.0 1019641
15:00+14ссв22480 0.0 1019514
18:00+10з11620 0.0 102012
21:00+10юз11682 0.0 101910
24 октября, вс
вс2400:00+9зюз11711 0.0 101810
03:00+8з22670 0.0 101814
06:00+8зюз22650 0.0 101915
09:00+13сз12500 0.0 1019386
12:00+14ссв32362 0.0 1017932
15:00+13св214820 0.0 1016618
18:00+9ююз117481 0.0 101610
21:00+8юз118130 0.0 101510
25 октября, пн
пн2500:00+8з118212 0.0 101410
03:00+7зсз228181 0.0 101519
06:00+7зсз2271100 0.0 101715
09:00+6ссз3383100 0.0 1019387
12:00+4с3394100 0.0 1020452
15:00+2с2396100 0.7 1022267
18:00+2ссв1297100 1.8 1025212
21:00+2ссз239797 2.8 1026249
26 октября, вт
вт2600:00+1сз249493 0.4 1027423
03:00−1зсз239233 0.5 1029153
06:00−2з22897 0.0 103088
09:00+1с12716 0.0 1030523
12:00+3св326773 0.0 1029819
15:00+2ссв227489 0.0 1031665
18:000ссв127775 0.0 1033223
21:00−1ююв11845 0.0 103412
27 октября, ср
ср2700:00−1ю11875 0.0 103310
03:00−1ююз11844 0.0 103210
06:00−1ю11790 0.0 103210
09:00+3вюв22652 0.0 1031291
12:00+6вюв44643 0.0 1028524
15:00+5юв44701 0.0 1027457
18:00+2ю33870 0.0 102843
21:00+3ю33790 0.0 102644